Meteo Giornale » Osservazioni meteo India » Cochin
ore: 11:30 - Osservazioni Meteo Cochin
Lat. 10° 9' N Lon. 76° 24' E Alt. 8 metri s.l.m.
31 °C
Nuvoloso
Temp. 24 Ore
24 °C
32 °C
Nord-Ovest
16.7 Km/h
Dew point 23 °C
Umidità 62 %
Visibilità 6 Km
Il sole sorge alle ore 06:15
Il sole tramonta alle ore 18:33
| Data e Ora | Cielo e Fenomeni | T °C | DP °C | Um. % | Pres. hPa | Vis. km | Vento km/h | |
|---|---|---|---|---|---|---|---|---|
| Oggi h: 11:30 | Nuvoloso | 31 | 23 | 62 | 1011 | 6 | NO 16.7 | |
| Oggi h: 11:00 | Foschia | 29 | 23 | 70 | 1012 | 5 | O/NO 14.8 | |
| Oggi h: 10:30 | Foschia | 30 | 24 | 70 | 1012 | 5 | NO 14.8 | |
| Oggi h: 09:30 | Foschia | 29 | 23 | 70 | 1012 | 5 | NO 18.5 | |
| Oggi h: 09:00 | Foschia | 29 | 24 | 74 | 1012 | 5 | N 5.5 | |
| Oggi h: 08:30 | Foschia | 28 | 24 | 78 | 1012 | 5 | N/NO 7.4 | |
| Oggi h: 08:00 | Foschia | 27 | 24 | 83 | 1011 | 4 | N 3.7 | |
| Oggi h: 07:30 | Foschia | 26 | 24 | 88 | 1011 | 4 | N 3.7 | |
| Oggi h: 07:00 | Foschia | 25 | 24 | 94 | 1011 | 4 | N 5.5 | |
| Oggi h: 06:30 | Foschia | 24 | 23 | 94 | 1011 | 4 | N 5.5 | |
| Oggi h: 06:00 | Foschia | 25 | 24 | 94 | 1011 | 4 | N 0 | |
| Oggi h: 05:30 | Foschia | 25 | 24 | 94 | 1010 | 4 | N 0 | |
| Oggi h: 05:00 | Foschia | 25 | 24 | 94 | 1010 | 3 | N 0 | |
| Oggi h: 04:00 | Foschia | 24 | 24 | 100 | 1010 | 4 | N 0 | |
| Oggi h: 03:30 | Foschia | 25 | 24 | 94 | 1010 | 4 | N 0 | |
| Oggi h: 03:00 | Foschia | 25 | 24 | 94 | 1011 | 4 | N 0 | |
| Oggi h: 02:30 | Foschia | 25 | 24 | 94 | 1011 | 4 | N 0 | |
| Oggi h: 02:00 | Foschia | 25 | 24 | 94 | 1011 | 4 | N 3.7 | |
| Oggi h: 01:30 | Foschia | 26 | 25 | 94 | 1011 | 4 | N 0 | |
| Oggi h: 01:00 | Foschia | 26 | 25 | 94 | 1011 | 4 | N 0 | |
| Oggi h: 00:30 | Foschia | 26 | 25 | 94 | 1011 | 4 | N 0 | |
| Oggi h: 00:00 | Foschia | 26 | 25 | 94 | 1012 | 4 | N 0 | |
| Ieri h: 23:00 | Foschia | 26 | 25 | 94 | 1012 | 4 | N 0 | |
| Ieri h: 22:30 | Foschia | 26 | 25 | 94 | 1012 | 4 | N 0 | |
| Ieri h: 22:00 | Foschia | 26 | 25 | 94 | 1012 | 4 | N 0 | |
| Ieri h: 21:30 | Foschia | 26 | 25 | 94 | 1012 | 4 | N 0 | |
| Ieri h: 21:00 | Foschia | 27 | 24 | 83 | 1012 | 5 | N 0 | |
| Ieri h: 20:30 | Foschia | 27 | 24 | 83 | 1012 | 5 | N 5.5 | |
| Ieri h: 20:00 | Foschia | 27 | 24 | 83 | 1011 | 5 | N 5.5 | |
| Ieri h: 19:30 | Foschia | 28 | 24 | 78 | 1011 | 5 | N 5.5 | |
| Ieri h: 19:00 | Foschia | 28 | 24 | 78 | 1011 | 5 | NO 7.4 | |
| Ieri h: 18:30 | Nuvoloso | 29 | 23 | 70 | 1010 | 5 | O/NO 14.8 | |
| Ieri h: 18:00 | Foschia | 30 | 23 | 66 | 1010 | 5 | O/NO 14.8 | |
| Ieri h: 17:30 | Foschia | 30 | 23 | 66 | 1009 | 5 | NO 22.2 | |
| Ieri h: 17:00 | Nuvoloso | 30 | 23 | 66 | 1009 | 6 | O/NO 20.3 | |
| Ieri h: 16:30 | Nuvoloso | 30 | 23 | 66 | 1009 | 6 | O/NO 22.2 | |
| Ieri h: 16:00 | Nuvoloso | 30 | 23 | 66 | 1009 | 6 | O/NO 22.2 | |
| Ieri h: 15:30 | Nuvoloso | 31 | 23 | 62 | 1009 | 6 | O 27.8 | |
| Ieri h: 15:00 | Nuvoloso | 31 | 23 | 62 | 1009 | 6 | NO 22.2 | |
| Ieri h: 14:30 | Nuvoloso | 32 | 23 | 59 | 1009 | 6 | O/NO 22.2 | |
| Ieri h: 14:00 | Nuvoloso | 32 | 23 | 59 | 1010 | 6 | O/NO 20.3 | |
| Ieri h: 13:30 | Foschia | 31 | 22 | 58 | 1010 | 5 | NO 22.2 | |
| Ieri h: 13:00 | Foschia | 31 | 24 | 66 | 1010 | 5 | O/NO 25.9 | |
| Ieri h: 12:30 | Foschia | 31 | 24 | 66 | 1011 | 5 | O/NO 18.5 | |



